Temperature
18 17 17 17 17 17 17 17 16 16 16 16 16 16 16 16 16 15 15 15 15 15 15 15 15 15 15 15 15 15 14 14 14 14 14 14 14 14 13 13 13 13 13
17 17 17 17 17 17 17 17 16 16 16 16 16 16 16 16 15 15 15 15 15 15 15 15 15 15 15 15 15 15 14 14 14 14 14 14 13 13 13 13 13 13 13
17 17 17 17 17 17 17 17 16 16 16 16 16 16 15 15 15 15 15 15 15 15 15 15 15 15 15 15 15 15 14 14 14 14 14 14 13 13 13 13 13 13 13
17 17 17 17 17 17 17 17 16 16 16 16 16 15 15 15 15 15 15 15 15 15 15 15 15 15 15 15 15 14 14 14 14 14 14 14 14 13 13 13 13 13 13
17 17 17 17 17 17 17 17 16 16 16 16 16 15 15 15 15 15 15 15 15 15 15 15 15 15 15 15 15 14 14 14 14 14 14 14 14 13 13 12 13 12 12
17 17 17 17 17 17 17 16 16 16 16 16 16 15 15 15 15 15 15 15 15 15 15 15 15 15 15 14 14 14 14 14 14 14 14 14 14 14 13 13 13 12 12
17 17 17 17 17 17 16 16 16 16 16 16 15 15 15 15 15 15 15 15 15 15 15 15 15 15 14 14 14 14 14 14 14 14 14 14 14 14 14 13 13 13 12
17 17 17 17 17 16 16 16 16 16 16 15 15 15 15 15 15 15 15 15 15 15 15 15 15 14 14 15 15 14 14 14 14 14 14 14 14 14 14 14 13 13 12
17 17 17 17 17 16 16 16 16 16 16 15 15 15 15 15 15 15 15 15 15 15 15 14 14 14 14 15 15 14 14 14 14 14 14 14 14 14 14 13 13 13 13
17 17 17 17 17 16 16 16 16 16 15 15 15 15 15 15 15 15 15 15 15 15 15 14 14 14 14 14 14 14 14 14 14 14 14 14 14 14 14 13 13 13 13
17 17 17 17 16 16 16 16 16 15 15 15 15 15 15 15 15 15 14 14 14 14 14 14 14 14 14 14 14 14 14 14 14 14 14 14 14 14 13 13 13 13 13
17 17 17 17 16 16 16 16 16 15 15 15 15 15 15 14 15 15 14 14 14 14 14 14 14 14 14 14 14 14 14 14 14 14 14 14 14 14 13 13 13 13 13
17 17 17 17 17 16 16 16 16 15 15 15 15 15 15 14 14 14 14 14 14 14 14 14 14 14 14 14 14 14 14 14 14 14 14 14 14 13 13 13 13 13 12
17 17 17 17 17 16 16 16 16 15 15 15 15 15 15 14 14 14 14 14 14 14 14 14 14 14 14 14 14 14 14 14 14 14 14 13 13 13 13 13 13 12 12
17 17 17 17 17 16 16 16 16 15 15 15 15 15 15 14 14 14 14 14 14 14 14 14 14 14 14 14 14 14 14 14 14 13 13 13 13 13 13 13 13 12 12
17 17 17 17 17 16 16 16 16 15 15 15 15 15 15 15 14 14 14 14 14 14 14 14 14 14 14 14 14 14 14 13 13 13 13 13 13 13 13 12 12 12 12
17 17 17 17 17 16 16 16 16 15 15 15 15 15 15 14 14 14 14 14 14 14 14 14 14 14 14 14 13 13 13 13 13 13 13 13 13 13 12 12 12 12 12
17 17 17 16 16 16 16 16 15 15 15 15 15 15 14 14 14 14 14 14 14 14 14 14 14 13 13 13 13 13 13 13 13 13 13 13 13 12 12 12 12 12 12
17 17 17 16 16 16 16 16 15 15 15 15 15 14 14 14 14 14 14 14 14 14 14 13 13 13 13 13 13 13 13 13 13 12 12 12 12 12 12 12 12 12 11
17 16 16 16 16 16 15 15 15 15 15 14 14 14 14 14 14 14 14 14 14 13 13 13 13 13 13 13 13 13 12 12 12 12 12 12 12 12 11 11 11 11 11
16 16 16 16 16 15 15 15 15 15 14 14 14 14 14 14 14 14 14 14 13 13 13 13 13 13 13 13 12 12 12 12 12 12 12 12 12 11 11 11 11 11 11
16 16 16 15 15 15 15 14 14 14 14 14 14 14 14 13 13 13 13 13 13 13 13 12 12 12 12 12 12 12 12 12 12 11 11 11 11 11 11 11 10 10 10
15 15 15 15 15 14 14 14 14 14 14 14 14 14 13 13 13 13 13 13 13 12 12 12 12 12 12 12 12 12 11 11 11 11 11 11 11 11 10 10 10 10 10
15 15 14 14 14 14 14 14 14 14 13 13 13 13 13 13 13 13 13 13 12 12 12 12 12 12 12 12 11 11 11 11 11 11 11 11 11 10 10 10 10 10 9
14 14 14 14 14 13 13 13 13 13 13 13 13 13 13 13 13 12 12 12 12 12 12 12 12 12 12 11 11 11 11 11 11 10 10 10 10 10 10 10 10 9 9
14 14 14 13 13 13 13 13 13 13 13 13 13 13 12 12 12 12 12 12 12 12 11 11 11 11 11 11 11 11 11 10 10 10 10 10 10 10 9 9 9 9 9
Wind_Speed
2 1 2 2 2 2 3 2 2 2 3 2 2 2 1 1 2 2 2 2 3 4 5 4 4 4 3 3 4 4 4 3 2 3 4 4 5 6 6 6 7 8 10
1 1 2 2 2 2 2 2 2 2 2 2 1 1 1 1 1 2 3 3 3 3 4 4 3 4 3 4 3 3 2 2 2 2 3 2 4 4 5 5 5 6 7
4 3 2 2 2 2 3 3 3 2 2 2 2 2 3 2 2 2 2 2 1 2 3 4 4 4 4 4 3 4 4 2 1 2 3 3 1 1 3 4 4 5 4
4 4 4 3 3 3 2 3 2 2 2 2 3 3 1 0 1 1 1 2 2 2 2 3 4 3 3 3 3 3 3 3 2 1 1 2 3 2 1 3 3 4 4
4 5 5 5 3 3 3 3 3 2 2 2 2 2 1 0 0 1 1 2 2 2 1 2 3 3 2 3 3 3 3 3 3 2 2 2 2 2 2 0 2 3 3
4 4 4 4 3 2 3 3 3 2 1 2 2 2 2 1 1 1 1 1 2 2 2 2 2 2 2 2 3 3 3 2 2 2 2 3 2 2 3 2 1 1 2
4 4 5 5 4 3 3 3 3 2 1 2 1 1 2 2 2 1 1 0 1 1 1 1 1 1 2 3 3 2 2 2 3 3 2 2 2 3 3 3 2 0 1
4 4 5 5 5 4 4 3 3 2 2 2 1 1 1 1 1 1 1 1 1 1 1 0 1 2 2 3 3 2 1 2 2 2 2 1 2 3 4 4 4 2 1
4 4 4 5 5 5 4 4 4 2 2 2 1 1 1 1 1 1 1 1 1 1 1 1 1 1 2 3 3 2 1 2 1 2 2 1 1 2 2 3 4 4 2
4 4 4 4 4 4 4 3 4 3 3 2 2 1 1 2 2 1 1 1 1 1 1 1 1 1 2 2 2 2 2 2 1 1 2 1 1 2 2 3 2 3 4
6 5 4 4 3 3 3 3 3 3 2 2 2 1 1 2 2 2 2 2 1 1 1 1 1 1 2 2 2 2 2 2 1 1 2 1 1 2 2 2 2 2 3
5 5 4 3 3 3 3 3 3 3 3 3 2 2 2 1 2 2 2 2 2 2 2 2 2 2 2 2 2 2 2 2 2 1 2 1 2 2 2 2 2 2 2
4 4 4 4 4 3 3 3 3 3 3 3 3 2 2 2 2 3 2 2 2 2 2 2 2 2 2 2 2 2 2 2 2 2 2 2 3 2 2 2 2 2 2
5 5 4 4 4 3 3 3 3 3 3 3 3 3 4 4 3 3 2 2 2 2 2 2 2 2 2 2 2 2 2 2 2 2 2 3 4 4 4 3 3 3 3
5 6 6 5 4 4 3 3 3 3 3 3 4 4 4 3 3 2 2 2 2 3 2 2 2 2 2 2 3 3 3 2 2 1 1 2 4 4 4 3 3 4 3
6 6 6 5 5 5 5 4 4 3 3 3 4 4 3 3 3 3 2 2 2 2 2 2 3 3 2 3 5 4 3 3 2 2 1 1 2 3 4 5 6 6 5
6 6 6 6 5 5 5 5 4 3 3 3 3 3 3 3 3 3 3 3 3 3 3 3 3 3 3 4 5 5 4 3 3 2 2 1 2 3 2 3 4 4 5
5 5 5 5 4 4 4 4 3 2 3 3 3 3 2 3 3 3 3 4 3 3 3 3 3 3 3 4 5 5 3 2 2 2 3 3 2 2 3 3 2 1 2
6 6 5 5 4 4 3 3 3 3 3 3 4 3 3 3 3 3 4 3 3 3 3 3 3 3 3 4 5 5 3 2 2 2 2 3 3 4 5 4 3 2 2
4 4 4 3 3 3 3 3 3 3 4 5 5 4 4 4 4 5 4 3 3 4 3 3 3 3 3 4 5 5 3 3 2 1 2 4 4 5 5 4 4 3 4
3 3 3 3 4 4 4 4 3 5 5 4 4 3 4 5 5 4 3 3 3 2 2 3 2 3 4 4 5 5 3 4 3 2 2 3 5 5 6 6 4 6 4
2 2 3 2 2 3 4 4 5 5 3 3 3 3 3 3 3 3 3 3 4 3 3 2 2 1 2 3 4 5 5 5 4 4 3 3 5 5 5 5 5 5 3
2 2 3 2 2 3 4 5 5 3 2 2 3 3 3 2 3 3 3 3 3 3 3 3 3 2 2 2 4 5 5 5 4 4 5 4 5 4 3 5 5 3 2
3 2 3 3 3 3 3 4 4 3 3 3 3 3 2 2 2 2 3 3 4 4 4 4 4 3 2 2 2 2 3 4 3 3 3 3 2 2 2 2 2 2 2
3 3 4 4 4 3 3 3 3 3 3 3 3 3 3 3 2 2 2 4 4 5 6 5 5 4 4 5 5 4 3 3 3 3 1 1 1 1 1 1 1 1 2
4 4 4 4 4 4 4 3 3 3 4 3 3 3 3 2 2 2 1 3 3 4 5 5 5 5 6 5 5 6 5 5 6 4 3 3 3 4 4 3 3 3 3
Wind_Direction
270 116 119 108 110 103 111 123 126 109 97 85 80 71 42 13 13 27 65 89 106 124 128 125 125 125 121 124 121 108 91 72 79 78 52 33 38 43 37 37 43 41 45
184 132 134 120 137 144 141 145 149 141 137 126 129 123 110 39 1 12 50 70 97 125 138 137 142 139 128 126 127 124 112 83 66 99 89 34 13 16 26 28 38 35 44
191 182 167 167 153 167 172 172 162 149 129 110 87 65 48 30 19 14 12 18 77 115 128 143 145 149 152 158 158 150 140 142 62 77 124 128 188 339 355 16 30 30 37
193 187 179 176 186 197 172 150 136 128 115 123 120 116 118 138 267 293 326 360 41 91 130 146 147 151 159 164 175 165 152 146 153 87 70 127 149 144 360 348 5 23 33
196 190 186 183 181 166 152 141 128 113 99 109 128 125 104 135 344 11 23 10 9 40 79 141 141 149 158 169 169 159 163 160 163 162 145 101 83 105 143 231 337 3 8
198 182 169 155 148 137 136 133 129 121 108 111 114 133 137 123 87 38 29 8 358 5 29 105 132 147 158 168 174 169 164 167 161 165 159 156 152 164 150 169 210 346 339
183 165 159 164 169 165 166 153 150 157 142 129 136 164 166 159 171 192 210 268 342 332 330 69 143 157 167 160 153 150 155 158 161 173 184 183 176 157 152 147 157 95 339
178 172 176 177 180 182 177 171 171 179 175 167 195 187 155 165 194 196 203 215 231 244 258 149 158 163 157 147 140 139 157 142 159 169 167 176 188 166 163 158 149 123 16
182 181 179 180 185 188 188 185 179 190 196 195 195 189 182 191 208 210 207 224 247 242 213 167 180 162 149 144 142 147 160 137 157 171 162 171 193 178 172 159 155 151 159
183 181 183 189 194 195 190 179 179 193 205 200 206 212 215 221 209 181 200 222 238 202 152 142 145 141 141 141 138 144 138 125 150 154 139 152 169 152 149 154 152 152 158
190 189 191 197 185 171 174 182 186 187 194 200 216 218 230 230 208 195 218 216 208 180 176 170 152 138 131 133 141 151 149 147 151 139 143 156 140 128 132 133 133 137 139
187 186 182 175 170 177 186 195 200 203 210 203 202 217 225 215 214 221 228 213 198 189 185 162 146 148 139 142 152 164 163 162 167 180 147 167 139 129 131 132 139 147 147
179 178 174 176 187 197 196 197 210 222 221 203 202 214 220 215 221 226 227 212 198 187 167 154 166 178 170 165 166 163 165 168 180 181 175 183 152 153 149 143 143 141 128
185 183 188 196 195 200 207 207 218 223 217 207 207 217 226 226 229 225 213 198 189 186 179 172 180 181 175 171 165 155 153 154 163 177 186 185 176 178 170 163 159 141 125
193 193 195 203 204 204 215 216 222 222 215 206 215 228 232 229 226 216 206 187 183 199 185 169 177 173 171 187 174 165 155 153 156 174 188 188 180 179 171 166 166 152 144
204 202 201 202 207 212 217 218 221 226 205 208 225 229 220 217 214 210 199 184 193 197 175 181 183 185 203 197 187 169 160 158 162 180 194 188 180 173 173 171 166 162 162
207 203 204 208 212 214 210 218 220 216 206 217 229 225 214 217 221 208 190 196 202 191 189 198 185 193 206 197 187 178 168 172 187 193 192 192 168 164 160 163 164 175 184
204 207 209 211 216 211 208 206 201 194 210 230 240 234 214 221 218 201 204 211 199 191 199 206 197 197 212 194 185 178 167 179 204 204 195 188 204 173 158 150 149 203 222
201 203 204 200 199 203 202 186 194 198 213 236 243 238 220 218 208 209 216 214 200 204 205 198 194 200 221 200 187 168 156 176 217 221 201 194 205 195 168 154 173 234 269
193 194 190 175 184 201 181 179 206 209 231 241 243 236 220 211 214 217 213 203 195 210 205 202 201 200 217 206 194 176 164 180 211 225 220 204 203 198 180 177 182 216 254
200 182 165 179 198 191 174 195 213 230 240 243 245 238 228 218 217 212 203 188 181 178 188 194 203 205 215 213 203 192 182 192 196 207 230 232 215 209 201 193 199 217 220
189 172 170 204 210 184 180 207 229 240 235 222 234 240 235 226 215 198 198 183 174 174 190 195 214 229 223 209 213 208 202 190 189 211 223 222 212 213 211 206 210 213 206
204 195 182 200 229 207 192 211 237 234 224 229 244 245 236 222 200 187 184 176 178 184 194 194 213 238 236 225 219 213 212 202 201 216 212 209 206 206 209 214 205 196 194
212 202 181 192 228 235 223 221 231 215 197 221 244 237 218 222 208 196 187 182 190 196 200 203 212 225 228 230 226 221 212 207 211 217 206 192 184 194 207 202 204 201 198
209 193 195 210 229 236 245 244 226 200 207 226 238 234 220 209 205 206 212 207 211 204 201 208 205 202 223 231 210 189 194 195 198 176 155 147 172 203 228 230 225 217 207
202 203 209 216 227 230 241 246 230 204 203 224 231 225 221 208 200 207 263 267 236 229 216 211 208 217 219 216 206 201 200 191 172 154 182 205 212 220 226 225 230 224 218
Height
1547 1548 1549 1550 1551 1552 1553 1553 1553 1554 1554 1554 1554 1554 1554 1554 1554 1554 1554 1554 1555 1555 1555 1555 1555 1556 1556 1556 1557 1557 1557 1556 1556 1556 1556 1556 1556 1555 1555 1554 1554 1552 1552
1546 1547 1549 1550 1551 1552 1552 1553 1553 1554 1554 1554 1554 1555 1555 1554 1555 1555 1555 1554 1555 1555 1555 1555 1556 1556 1556 1557 1557 1557 1557 1557 1557 1557 1557 1557 1558 1557 1556 1556 1555 1554 1554
1545 1546 1548 1549 1550 1551 1552 1553 1553 1554 1554 1554 1554 1554 1555 1554 1555 1554 1554 1554 1554 1555 1555 1556 1556 1556 1557 1557 1557 1558 1558 1558 1558 1558 1559 1558 1558 1558 1558 1557 1556 1556 1555
1543 1545 1546 1548 1549 1550 1552 1553 1553 1554 1554 1554 1554 1554 1554 1554 1554 1554 1554 1554 1555 1555 1555 1555 1556 1556 1557 1557 1557 1558 1558 1558 1558 1558 1558 1559 1559 1559 1558 1558 1557 1557 1556
1542 1543 1545 1547 1549 1550 1551 1552 1553 1553 1554 1554 1554 1554 1554 1554 1554 1554 1554 1554 1555 1555 1555 1555 1556 1556 1556 1557 1557 1557 1558 1558 1558 1558 1558 1558 1558 1558 1558 1558 1558 1557 1557
1540 1542 1544 1546 1548 1549 1550 1551 1552 1552 1553 1553 1553 1553 1553 1553 1553 1553 1553 1554 1554 1554 1555 1555 1555 1556 1556 1556 1557 1557 1557 1557 1557 1558 1558 1558 1558 1558 1557 1557 1557 1557 1557
1539 1541 1543 1544 1547 1548 1549 1550 1551 1551 1552 1552 1552 1552 1552 1552 1552 1552 1553 1553 1553 1554 1554 1554 1554 1555 1555 1555 1556 1556 1556 1556 1556 1557 1557 1557 1557 1557 1557 1557 1557 1557 1557
1538 1539 1541 1543 1545 1547 1548 1549 1550 1550 1551 1551 1551 1552 1552 1552 1552 1552 1552 1552 1552 1553 1553 1553 1553 1554 1554 1554 1555 1555 1555 1555 1555 1556 1556 1556 1556 1556 1556 1557 1557 1556 1557
1537 1539 1541 1543 1544 1546 1547 1548 1549 1549 1550 1550 1550 1551 1551 1551 1551 1551 1551 1551 1552 1552 1552 1552 1552 1553 1553 1553 1554 1554 1554 1554 1554 1554 1555 1555 1554 1555 1555 1555 1556 1557 1556
1536 1538 1540 1542 1544 1545 1546 1547 1547 1548 1548 1549 1549 1549 1550 1550 1550 1550 1550 1550 1551 1551 1551 1551 1551 1552 1552 1552 1553 1553 1553 1553 1553 1553 1553 1553 1553 1554 1554 1554 1555 1555 1555
1535 1537 1539 1541 1543 1544 1545 1545 1546 1546 1547 1547 1548 1548 1548 1548 1549 1548 1549 1549 1549 1549 1550 1550 1550 1550 1551 1551 1551 1552 1552 1552 1552 1552 1552 1552 1552 1552 1552 1553 1553 1553 1554
1535 1536 1538 1540 1541 1542 1543 1543 1544 1544 1545 1546 1546 1546 1546 1546 1546 1546 1547 1547 1547 1548 1548 1548 1549 1549 1549 1550 1550 1550 1550 1551 1550 1550 1550 1550 1550 1550 1551 1551 1551 1552 1552
1533 1535 1536 1538 1539 1540 1541 1542 1542 1543 1543 1544 1544 1544 1544 1544 1544 1544 1545 1545 1545 1546 1546 1546 1547 1547 1548 1548 1549 1549 1549 1549 1549 1549 1549 1549 1549 1549 1549 1549 1550 1550 1550
1532 1533 1534 1536 1537 1539 1539 1540 1540 1541 1541 1541 1541 1541 1541 1542 1542 1542 1542 1543 1543 1544 1544 1544 1545 1545 1546 1547 1547 1547 1547 1547 1547 1547 1547 1547 1547 1547 1548 1548 1548 1548 1548
1529 1531 1532 1534 1535 1536 1537 1538 1538 1539 1539 1539 1539 1539 1539 1539 1539 1540 1540 1541 1541 1542 1542 1542 1543 1544 1544 1545 1545 1545 1546 1546 1546 1546 1546 1546 1546 1546 1546 1546 1546 1546 1546
1527 1528 1530 1531 1533 1534 1534 1535 1535 1536 1536 1536 1536 1537 1537 1537 1537 1537 1538 1538 1539 1539 1540 1540 1541 1541 1542 1542 1543 1543 1543 1543 1544 1544 1544 1544 1544 1544 1544 1544 1543 1544 1544
1524 1526 1527 1529 1530 1531 1532 1533 1533 1533 1534 1534 1534 1534 1534 1534 1534 1535 1535 1535 1536 1537 1537 1538 1538 1539 1540 1540 1541 1541 1541 1541 1541 1541 1541 1541 1541 1541 1541 1541 1541 1541 1541
1522 1523 1525 1526 1528 1529 1530 1530 1531 1531 1531 1531 1531 1532 1532 1531 1532 1532 1532 1532 1533 1534 1534 1535 1536 1536 1537 1537 1538 1538 1538 1538 1538 1538 1538 1538 1538 1538 1538 1538 1538 1538 1538
1520 1521 1522 1524 1525 1526 1527 1528 1528 1528 1528 1528 1529 1529 1529 1529 1529 1528 1529 1529 1530 1531 1531 1532 1532 1533 1533 1534 1535 1535 1535 1535 1535 1535 1535 1535 1535 1535 1535 1535 1535 1534 1534
1518 1518 1520 1521 1522 1523 1524 1524 1525 1525 1525 1525 1525 1526 1526 1526 1526 1526 1526 1526 1527 1527 1528 1528 1529 1530 1530 1531 1531 1532 1532 1531 1531 1532 1532 1532 1532 1532 1532 1532 1531 1531 1531
1515 1516 1517 1517 1518 1519 1520 1521 1521 1521 1522 1522 1522 1522 1522 1522 1522 1522 1523 1523 1523 1524 1525 1525 1526 1526 1527 1527 1528 1528 1528 1528 1528 1528 1528 1529 1529 1529 1529 1528 1528 1527 1528
1512 1513 1513 1514 1515 1516 1517 1517 1517 1518 1519 1519 1519 1519 1519 1519 1519 1519 1519 1519 1520 1520 1521 1521 1522 1523 1523 1524 1524 1524 1525 1525 1525 1525 1525 1525 1526 1526 1525 1525 1524 1524 1524
1509 1509 1510 1511 1511 1512 1513 1513 1514 1515 1515 1516 1516 1516 1516 1515 1515 1515 1515 1515 1516 1516 1517 1517 1518 1519 1519 1520 1520 1521 1521 1521 1521 1521 1521 1522 1522 1522 1522 1521 1521 1521 1520
1505 1506 1507 1507 1508 1509 1509 1510 1511 1512 1512 1512 1512 1512 1512 1512 1512 1512 1511 1511 1512 1512 1513 1513 1514 1515 1515 1516 1516 1516 1516 1517 1517 1517 1517 1518 1518 1518 1518 1517 1517 1517 1517
1502 1503 1503 1504 1504 1505 1506 1507 1507 1508 1508 1508 1508 1508 1508 1508 1508 1508 1508 1508 1508 1509 1509 1509 1510 1511 1511 1512 1513 1513 1512 1513 1513 1513 1513 1513 1513 1513 1513 1513 1513 1513 1513
1499 1499 1500 1500 1501 1502 1503 1503 1504 1504 1504 1504 1504 1504 1504 1504 1504 1505 1505 1505 1505 1505 1506 1506 1507 1507 1508 1508 1509 1509 1509 1509 1509 1509 1508 1508 1509 1509 1509 1509 1509 1509 1508